{"data":{"norad_id":65664,"epoch":"2026-09-20T13:29:12.708096Z","epoch_age_seconds":103373,"freshness":"FRESH","line1":"1 65664U 25211N   26263.56195264  .00013964  00000+0  43392-3 0  9991","line2":"2 65664  97.2823 303.8021 0001057 117.7200 242.4150 15.33456035 56530","mean_motion":15.33456035,"eccentricity":0.0001057,"inclination_deg":97.2823,"raan_deg":303.8021,"arg_perigee_deg":117.72,"mean_anomaly_deg":242.415,"bstar":0.00043392,"rev_number":5653,"period_min":93.905528892454,"perigee_km":464.78696875473,"apogee_km":466.23371580288,"semimajor_km":6843.6473422788,"source":"CELESTRAK","updated_at":"2026-09-21T09:00:35.681593Z"}}